Wind_Speed
1 1 1 1 1 1 1 1 3 3 2 2 2 3 3 3 2 2 2 3 3 4 4 4 4 4 4 4 5 5 5 5 4 4 4 4 4 4 4 4 4 4 5
1 2 2 2 2 1 1 1 2 3 2 2 2 3 3 3 3 3 3 3 4 4 4 5 5 5 5 5 5 5 5 5 5 5 5 4 4 5 5 5 5 5 5
1 2 2 2 3 2 2 2 3 3 3 3 3 3 4 4 4 4 4 4 4 5 5 5 5 5 5 4 5 5 5 6 5 5 6 5 5 6 6 6 6 6 6
2 3 3 2 3 3 2 3 3 3 3 3 4 4 5 5 4 4 4 4 5 5 5 5 5 6 6 5 5 6 6 6 5 5 6 6 6 7 7 7 7 7 6
3 3 3 3 3 3 3 3 4 4 4 4 5 5 5 6 6 6 5 5 5 5 6 6 6 6 6 6 6 6 7 7 6 6 6 6 6 7 7 8 8 8 8
3 3 3 4 4 4 4 5 5 5 5 5 5 6 6 7 7 7 7 6 6 6 7 7 7 7 7 7 7 7 8 7 7 7 7 7 7 7 8 8 9 9 9
4 4 4 5 6 5 5 6 6 6 6 6 6 6 7 7 7 7 8 8 8 8 8 9 8 8 8 8 8 8 8 8 8 8 9 8 8 8 9 9 9 9 10
5 6 6 6 6 6 6 7 7 7 7 7 7 8 8 8 9 9 9 9 9 9 10 10 9 10 10 10 10 10 10 10 10 10 10 10 10 10 10 11 10 11 11
6 6 7 7 7 7 7 8 9 9 9 9 10 10 10 10 10 10 10 10 10 11 11 11 11 12 12 12 12 12 12 12 12 12 12 12 12 12 12 13 13 12 12
8 8 8 8 9 9 9 9 10 11 11 11 12 12 12 12 12 12 11 11 12 13 13 13 13 13 14 13 14 14 13 13 13 12 12 13 13 14 14 14 14 14 14
9 10 10 10 10 11 11 11 12 12 13 13 14 14 14 15 15 14 13 13 14 14 14 15 15 15 16 16 15 15 15 15 15 15 15 15 15 15 16 16 16 16 16
11 11 11 12 13 13 13 13 13 14 14 14 15 16 16 16 17 16 16 16 16 16 16 16 16 17 17 17 17 16 17 17 17 17 17 17 17 17 17 18 18 18 18
12 12 13 14 13 14 15 15 15 16 16 16 17 17 17 17 18 18 18 18 18 18 19 18 18 18 18 19 19 19 19 19 19 19 19 19 19 19 19 20 19 19 20
14 14 15 16 16 17 17 18 18 18 18 18 19 19 19 19 20 20 20 20 20 20 20 20 19 19 20 20 19 19 21 21 21 21 20 20 21 21 21 21 20 20 20
16 16 17 17 17 18 19 19 20 20 21 21 21 21 21 21 21 22 22 22 22 21 20 21 21 20 21 22 21 20 21 21 21 21 21 21 21 22 23 23 22 23 23
18 17 18 19 19 20 21 21 21 22 22 23 23 23 23 23 23 23 24 24 24 23 23 22 22 22 22 22 23 22 21 22 22 22 22 23 22 22 23 24 24 24 24
20 20 20 20 21 21 22 23 23 24 24 24 25 25 24 24 24 24 25 25 25 25 24 24 23 24 24 23 24 23 23 22 23 23 23 23 23 23 23 24 24 25 25
21 22 22 23 24 24 24 25 26 26 25 25 26 26 25 26 25 26 26 26 26 26 25 25 25 25 26 26 25 24 24 24 23 24 24 24 24 24 24 24 24 25 25
24 25 25 26 26 26 26 27 27 27 27 27 27 27 28 27 26 26 27 27 27 27 27 27 26 26 26 26 25 26 26 26 25 24 25 25 25 24 25 25 25 26 26
25 26 27 28 29 29 29 28 28 28 28 28 29 29 28 28 27 27 27 28 28 28 28 28 28 27 27 27 27 27 27 27 26 26 26 26 26 26 26 26 26 27 27
28 29 29 30 30 30 30 30 30 30 30 30 30 30 30 30 30 30 29 28 28 28 28 29 28 28 28 28 27 27 28 28 28 28 28 28 27 27 27 27 27 28 28
30 31 31 30 30 30 31 31 31 31 31 32 33 33 33 33 32 32 31 31 30 30 30 30 30 29 28 29 29 29 29 29 29 30 30 29 29 29 28 29 29 29 29
32 33 32 31 31 31 32 32 33 33 32 33 33 33 34 34 34 34 33 33 32 32 32 32 32 31 30 31 32 32 31 31 30 30 31 31 29 29 30 29 29 29 29
35 35 34 34 33 33 33 34 34 34 34 34 34 34 35 35 35 35 35 34 34 34 34 34 33 33 34 34 34 33 32 32 32 31 32 31 31 31 30 29 29 29 29
36 36 35 35 36 35 35 35 35 35 35 35 36 36 37 37 36 36 36 36 35 35 35 35 35 34 34 35 35 35 34 34 34 32 32 32 31 32 32 31 31 30 30
38 37 37 37 37 37 37 36 36 37 37 37 37 37 37 37 37 37 38 38 38 37 37 36 35 35 35 34 35 35 36 36 35 34 34 33 33 32 32 31 31 31 31
Wind_Direction
65 61 36 21 12 2 360 5 16 1 354 350 349 346 351 358 4 359 349 338 328 321 325 324 327 326 322 325 325 326 318 303 302 302 302 299 303 312 313 318 318 321 316
16 13 8 355 6 2 10 16 11 1 355 351 343 336 334 336 331 325 323 325 317 309 310 314 318 321 317 318 317 317 318 308 294 294 298 291 289 302 304 307 313 313 313
3 356 349 342 354 1 359 1 5 357 351 346 340 333 325 321 322 319 319 317 313 310 307 308 314 313 315 311 310 314 315 321 303 291 293 288 287 295 301 302 305 305 305
12 7 355 338 344 347 349 353 351 342 339 336 328 320 323 325 325 328 324 321 316 312 308 308 315 305 306 305 303 305 308 315 315 301 294 293 292 296 299 300 301 302 301
1 351 337 348 345 340 332 329 332 334 331 331 334 329 328 326 323 321 317 317 317 314 312 312 311 308 300 296 298 298 300 304 305 307 308 305 295 294 296 297 297 298 298
348 341 340 337 335 335 329 329 329 328 328 332 330 326 323 323 326 324 322 319 318 319 316 313 314 306 300 295 299 303 301 302 298 296 301 304 299 295 297 298 295 295 296
338 326 339 330 325 321 316 322 323 317 317 320 319 318 318 319 317 316 314 310 310 312 310 314 312 306 302 295 293 296 298 297 297 292 290 295 296 293 293 296 294 294 295
331 326 321 320 322 316 313 314 317 314 309 310 311 312 313 314 312 312 308 303 302 308 307 301 299 299 296 294 290 290 291 290 293 290 288 290 289 287 287 289 288 288 292
313 317 316 312 312 315 313 312 310 311 308 305 306 305 306 307 309 305 300 302 300 299 299 298 296 295 294 290 289 289 288 289 288 289 286 285 285 285 284 283 284 286 285
312 307 308 307 306 309 308 308 311 307 308 307 306 306 304 301 303 298 294 296 299 298 298 297 295 293 291 288 285 285 286 287 287 288 286 284 284 283 282 284 283 283 282
307 305 304 303 302 304 306 307 308 307 306 307 306 307 305 302 302 297 294 295 296 297 297 297 295 292 291 291 286 284 282 283 283 284 285 284 282 283 282 283 283 282 283
304 306 304 301 297 297 301 302 304 308 308 306 305 306 306 305 304 299 294 295 296 295 295 296 294 290 290 291 288 283 282 282 283 284 284 283 282 282 281 283 285 285 285
303 304 304 301 296 294 295 296 298 302 304 302 301 301 301 301 302 301 299 296 295 294 294 293 292 291 290 291 290 283 283 281 282 284 284 284 283 282 282 284 286 286 286
302 300 301 302 300 298 296 294 294 298 299 300 300 299 298 298 298 298 296 295 294 291 291 292 290 290 289 290 291 286 287 283 284 284 284 284 283 282 281 284 285 287 287
299 296 298 300 300 299 298 297 296 296 296 297 297 296 296 296 296 295 294 294 292 293 292 292 289 288 289 288 289 289 287 283 284 284 284 284 283 282 281 282 284 284 284
298 296 297 299 298 298 298 297 296 297 296 297 297 297 295 296 295 295 293 291 291 290 292 292 289 289 290 291 289 287 285 282 282 283 282 282 282 283 282 282 284 284 284
299 297 298 298 297 296 297 297 295 296 295 294 295 296 295 295 295 294 292 289 288 289 291 289 288 288 289 290 288 286 283 282 280 281 280 279 278 280 281 281 283 284 285
299 299 297 296 297 297 296 297 296 294 294 293 293 293 293 293 292 292 292 290 289 291 292 290 287 286 286 287 287 285 284 283 279 279 278 277 276 278 280 281 283 283 283
296 298 295 294 296 298 297 295 294 293 292 291 291 292 293 293 291 292 291 291 292 293 293 290 287 286 285 284 284 283 282 282 280 280 278 277 275 276 278 280 282 282 282
296 299 298 298 298 297 295 293 294 294 293 292 290 290 291 291 290 290 291 291 292 292 292 291 289 286 285 284 282 282 281 279 278 278 279 278 277 276 277 279 280 281 282
295 295 295 296 297 298 297 294 292 292 291 290 289 289 290 289 289 289 289 289 289 289 289 289 289 288 287 287 284 284 281 279 276 275 277 277 276 276 278 279 281 282 282
297 297 295 294 296 296 296 295 293 291 289 289 288 287 287 288 289 288 288 287 287 287 288 289 289 288 286 286 285 283 282 281 279 278 276 277 277 278 278 279 281 281 281
296 296 293 292 293 293 294 295 295 293 291 290 289 288 287 287 287 286 286 286 286 286 288 289 289 287 286 285 285 284 284 283 282 280 278 278 278 278 278 279 280 279 279
293 293 292 291 291 291 292 293 293 291 289 289 289 288 287 286 285 284 283 283 284 285 285 286 286 285 285 285 284 285 284 282 281 280 281 279 278 277 277 278 278 277 278
291 291 291 290 290 290 291 292 292 291 289 288 287 287 286 285 284 283 283 283 283 283 283 285 284 284 284 284 284 283 284 283 283 282 282 282 279 278 278 278 278 277 276
289 289 290 291 291 292 291 291 290 290 289 288 287 286 286 284 282 281 281 282 281 281 280 282 282 283 282 283 284 284 284 284 284 283 282 280 279 278 277 275 276 277 277
Height
5907 5907 5907 5907 5907 5907 5907 5907 5907 5907 5907 5906 5906 5906 5906 5906 5906 5906 5905 5905 5905 5905 5905 5905 5904 5904 5904 5903 5903 5902 5902 5901 5901 5901 5901 5901 5901 5900 5900 5900 5899 5899 5898
5907 5907 5907 5907 5907 5907 5907 5907 5907 5907 5907 5906 5906 5906 5906 5905 5905 5905 5904 5904 5904 5904 5904 5904 5904 5903 5903 5902 5902 5902 5901 5901 5900 5900 5900 5900 5900 5900 5899 5899 5898 5898 5897
5907 5907 5907 5907 5907 5907 5907 5907 5907 5907 5906 5906 5906 5906 5906 5905 5905 5905 5904 5904 5904 5903 5903 5903 5903 5903 5902 5901 5901 5901 5900 5900 5899 5899 5899 5899 5898 5898 5898 5898 5897 5897 5896
5907 5907 5907 5908 5907 5907 5907 5907 5907 5907 5906 5906 5906 5905 5905 5905 5904 5904 5904 5903 5903 5902 5902 5902 5902 5902 5901 5900 5900 5900 5899 5899 5898 5898 5897 5897 5897 5897 5896 5896 5896 5895 5895
5908 5908 5908 5908 5908 5907 5907 5907 5907 5906 5906 5906 5905 5905 5905 5904 5904 5903 5902 5902 5902 5902 5901 5901 5900 5900 5900 5899 5899 5898 5898 5898 5897 5897 5896 5896 5895 5895 5895 5894 5894 5893 5893
5908 5908 5908 5908 5908 5907 5907 5907 5906 5906 5905 5905 5904 5904 5904 5903 5903 5902 5901 5901 5901 5901 5900 5900 5899 5898 5898 5898 5897 5897 5896 5896 5896 5895 5895 5894 5894 5893 5893 5892 5892 5892 5891
5908 5907 5908 5907 5907 5907 5907 5906 5906 5905 5905 5904 5903 5903 5903 5901 5901 5900 5900 5900 5899 5899 5897 5898 5897 5897 5896 5896 5895 5895 5894 5894 5893 5893 5893 5892 5892 5891 5891 5890 5890 5889 5889
5908 5907 5907 5907 5907 5906 5906 5905 5905 5904 5903 5903 5903 5902 5901 5900 5899 5898 5898 5897 5897 5896 5895 5896 5895 5895 5894 5893 5893 5892 5892 5892 5891 5891 5890 5890 5889 5889 5888 5888 5887 5887 5886
5907 5907 5907 5906 5906 5906 5905 5904 5904 5903 5902 5902 5901 5900 5899 5899 5898 5897 5895 5895 5894 5894 5894 5893 5892 5892 5891 5891 5890 5890 5889 5889 5888 5888 5887 5887 5886 5886 5885 5885 5884 5884 5883
5906 5906 5905 5905 5904 5904 5903 5903 5902 5901 5900 5899 5898 5897 5896 5895 5894 5894 5893 5892 5892 5891 5891 5890 5889 5888 5888 5887 5886 5886 5886 5885 5885 5885 5884 5884 5883 5882 5882 5881 5880 5880 5879
5905 5904 5903 5903 5902 5902 5901 5900 5899 5898 5897 5897 5895 5894 5893 5892 5891 5890 5890 5889 5889 5888 5887 5886 5886 5885 5884 5883 5882 5882 5881 5881 5881 5880 5880 5880 5879 5878 5878 5877 5876 5876 5875
5903 5902 5900 5900 5900 5900 5899 5898 5897 5896 5894 5893 5892 5891 5890 5889 5888 5887 5886 5885 5884 5884 5883 5882 5882 5881 5880 5879 5878 5877 5877 5877 5876 5876 5875 5875 5874 5874 5873 5873 5872 5871 5870
5901 5900 5899 5898 5897 5896 5896 5895 5894 5893 5891 5890 5889 5888 5886 5885 5884 5883 5882 5881 5880 5879 5878 5878 5877 5875 5874 5874 5873 5873 5872 5872 5871 5871 5870 5870 5869 5869 5868 5868 5867 5866 5866
5898 5897 5896 5895 5894 5893 5892 5891 5890 5889 5888 5886 5885 5884 5883 5881 5880 5879 5878 5876 5875 5874 5873 5872 5871 5871 5869 5868 5867 5867 5867 5866 5866 5865 5865 5864 5864 5863 5863 5863 5862 5861 5860
5894 5893 5893 5892 5890 5889 5888 5887 5886 5885 5884 5882 5881 5879 5878 5877 5875 5874 5873 5871 5870 5869 5868 5867 5866 5865 5864 5862 5862 5861 5861 5860 5860 5859 5859 5858 5858 5857 5857 5857 5856 5855 5854
5890 5889 5888 5887 5886 5885 5884 5883 5882 5880 5879 5878 5876 5875 5873 5872 5870 5869 5868 5866 5864 5863 5862 5861 5860 5859 5858 5858 5857 5856 5855 5854 5854 5853 5853 5852 5852 5851 5850 5850 5849 5849 5848
5886 5885 5883 5882 5881 5880 5879 5878 5876 5875 5873 5872 5870 5869 5868 5866 5865 5863 5862 5860 5858 5857 5855 5855 5854 5853 5852 5851 5850 5849 5849 5848 5847 5847 5846 5846 5845 5845 5844 5844 5843 5842 5841
5881 5880 5878 5877 5875 5874 5873 5871 5870 5868 5867 5865 5864 5863 5861 5860 5858 5857 5855 5853 5852 5850 5849 5848 5847 5847 5846 5844 5842 5842 5842 5841 5840 5840 5839 5839 5838 5838 5838 5837 5836 5835 5834
5876 5874 5872 5871 5869 5868 5866 5865 5863 5862 5860 5859 5857 5856 5854 5853 5851 5850 5849 5847 5845 5844 5843 5841 5840 5839 5838 5837 5836 5835 5834 5834 5833 5832 5832 5831 5831 5831 5830 5830 5829 5828 5827
5870 5868 5866 5864 5862 5861 5859 5857 5856 5855 5853 5852 5850 5849 5847 5845 5844 5843 5841 5840 5839 5837 5836 5834 5833 5832 5831 5830 5829 5828 5827 5826 5825 5825 5824 5824 5823 5823 5822 5822 5821 5820 5819
5863 5861 5859 5857 5855 5853 5851 5850 5849 5847 5846 5844 5842 5841 5839 5838 5837 5835 5834 5832 5831 5830 5828 5827 5826 5825 5824 5823 5821 5820 5819 5818 5817 5817 5816 5816 5815 5815 5814 5813 5813 5812 5811
5856 5854 5852 5850 5848 5846 5844 5842 5841 5839 5837 5836 5834 5832 5831 5830 5828 5827 5825 5824 5823 5821 5820 5819 5818 5817 5816 5815 5813 5811 5810 5809 5809 5809 5808 5807 5807 5807 5806 5805 5804 5803 5802
5849 5846 5844 5842 5840 5838 5836 5834 5832 5830 5828 5827 5825 5823 5822 5820 5819 5818 5816 5815 5814 5812 5811 5810 5809 5809 5808 5807 5805 5803 5801 5800 5800 5799 5799 5798 5797 5797 5797 5796 5795 5794 5793
5840 5838 5836 5834 5832 5829 5827 5825 5823 5821 5819 5818 5816 5814 5813 5811 5809 5808 5807 5806 5805 5804 5802 5801 5800 5799 5798 5797 5795 5794 5793 5792 5791 5790 5789 5789 5788 5787 5787 5787 5786 5785 5784
5831 5829 5827 5824 5822 5820 5818 5816 5813 5811 5809 5808 5806 5804 5803 5801 5800 5798 5797 5796 5795 5794 5793 5792 5791 5790 5788 5787 5786 5784 5783 5782 5781 5781 5780 5779 5779 5778 5777 5777 5776 5775 5775
5822 5819 5817 5815 5812 5810 5808 5805 5803 5801 5799 5797 5795 5794 5792 5791 5789 5787 5786 5785 5785 5784 5783 5782 5781 5780 5779 5777 5776 5775 5773 5772 5771 5770 5770 5769 5768 5767 5766 5766 5766 5765 5765